Location: *
(47.6569°N, 7.4256°E)
Time: 21:31:12
(UTC+00:00)

Cosmos 1908 Rocket - Pass Details

Date: 14 December 2019
Orbit: 605 x 633 km, 82.5° (Epoch: 18 January)

Event Time Altitude Azimuth Distance (km) Brightness Sun altitude
Rises 16:52:47 0° 349° (NNW) 2,904 6.9 -11.8°
Reaches altitude 10° 16:55:02 10° 348° (NNW) 1,989 6.1 -12.2°
Maximum altitude 16:59:26 76° 263° (W) 637 3.7 -12.9°
Drops below altitude 10° 17:03:45 10° 178° (S) 1,957 6.3 -13.6°
Sets 17:05:57 0° 177° (S) 2,853 7.2 -13.9°
